EW6013 Weather Reports


Display with metric or nautical units.
time (UTC)temp
F
wind
direction
speed
MPH
gust
MPH
rain 1hr
in
rain 24hr
in
rain mn
in
humidity
%
barometer
mb
20260902161017 69 317 0.0 2.0 0.00 0.23 0.00 54 1019.6
20260902160516 69 312 0.0 2.0 0.00 0.23 0.00 54 1019.7
20260902160037 69 0.0 4.0 0.00 0.23 0.00 54 1019.7
20260902155516 69 250 1.0 4.0 0.00 0.23 0.00 59 1019.6
20260902155016 68 187 1.0 5.0 0.00 0.23 0.00 54 1019.6
20260902154536 68 185 0.0 5.0 0.00 0.23 0.00 44 1019.7
20260902154036 68 327 0.0 1.0 0.00 0.23 0.00 40 1019.8
20260902153517 68 334 0.0 1.0 0.00 0.23 0.00 43 1019.8
20260902153017 68 0.0 1.0 0.00 0.23 0.00 34 1020.0
20260902152517 68 338 0.0 4.0 0.00 0.23 0.00 38 1019.9
20260902152036 68 220 0.0 4.0 0.00 0.23 0.00 39 1019.9
20260902151516 67 0.0 3.0 0.00 0.23 0.00 35 1020.0
20260902151017 67 198 0.0 3.0 0.00 0.23 0.00 29 1020.0
20260902150516 67 214 0.0 3.0 0.00 0.23 0.00 25 1019.9
20260902150037 67 0.0 0.0 0.00 0.23 0.00 16 1019.9
20260902145534 67 0.0 0.0 0.00 0.23 0.00 18 1020.0
20260902145016 66 0.0 0.0 0.00 0.23 0.00 14 1020.2
20260902144516 66 0.0 1.0 0.00 0.23 0.00 9 1020.1
20260902144036 66 212 0.0 1.0 0.00 0.23 0.00 9 1020.1
20260902143516 66 0.0 1.0 0.00 0.23 0.00 7 1020.0
20260902143016 65 212 0.0 2.0 0.00 0.23 0.00 8 1019.8
20260902142536 65 188 0.0 2.0 0.00 0.23 0.00 7 1019.8
20260902142016 65 190 0.0 1.0 0.00 0.23 0.00 7 1019.7
20260902141516 65 0.0 2.0 0.00 0.23 0.00 7 1019.7
20260902141016 65 196 0.0 2.0 0.00 0.23 0.00 8 1019.8
20260902140516 65 0.0 1.0 0.00 0.23 0.00 8 1019.7
20260902140037 65 332 0.0 3.0 0.00 0.23 0.00 9 1019.5
20260902135516 65 331 0.0 3.0 0.00 0.23 0.00 9 1019.3
20260902135016 65 293 0.0 2.0 0.00 0.23 0.00 9 1019.1
20260902134517 64 229 0.0 2.0 0.00 0.23 0.00 10 1019.3
20260902134016 64 0.0 0.0 0.00 0.23 0.00 10 1019.3
20260902133516 64 0.0 1.0 0.00 0.23 0.00 10 1019.3
20260902133016 64 349 0.0 1.0 0.00 0.23 0.00 10 1019.3
20260902132536 64 349 0.0 2.0 0.00 0.23 0.00 10 1019.2
20260902132016 64 329 0.0 2.0 0.00 0.23 0.00 10 1019.2
20260902131516 64 355 0.0 1.0 0.00 0.23 0.00 10 1019.1
20260902131016 64 0.0 0.0 0.00 0.23 0.00 10 1019.3
20260902130516 64 0.0 0.0 0.00 0.23 0.00 10 1019.4
20260902130016 63 0.0 0.0 0.00 0.23 0.00 11 1019.5
20260902125516 63 0.0 0.0 0.00 0.24 0.00 11 1019.6
20260902125016 63 0.0 0.0 0.00 0.24 0.00 11 1019.6
20260902124516 63 0.0 0.0 0.00 0.25 0.00 11 1019.5
20260902124036 63 0.0 0.0 0.00 0.25 0.00 11 1019.5
20260902123516 63 0.0 0.0 0.00 0.26 0.00 11 1019.5
20260902123036 63 0.0 0.0 0.00 0.27 0.00 11 1019.7
20260902122516 63 0.0 0.0 0.00 0.28 0.00 11 1019.7
20260902122016 62 0.0 0.0 0.00 0.29 0.00 11 1019.6
20260902121516 62 0.0 0.0 0.00 0.31 0.00 11 1019.5
20260902121016 62 0.0 0.0 0.00 0.32 0.00 11 1019.5
20260902120516 62 0.0 0.0 0.00 0.32 0.00 11 1019.6
20260902120016 62 0.0 0.0 0.00 0.32 0.00 11 1019.6
20260902115537 62 0.0 0.0 0.00 0.33 0.00 11 1019.7
20260902115016 62 0.0 0.0 0.00 0.33 0.00 11 1019.7
20260902114516 62 0.0 0.0 0.00 0.34 0.00 11 1019.7
20260902114016 62 0.0 0.0 0.00 0.34 0.00 11 1019.7
20260902113516 62 0.0 0.0 0.00 0.34 0.00 11 1019.8
20260902113016 62 0.0 0.0 0.00 0.34 0.00 11 1019.8
20260902112516 62 0.0 0.0 0.00 0.34 0.00 11 1019.8
20260902112016 62 0.0 0.0 0.00 0.34 0.00 11 1019.7
20260902111536 62 0.0 0.0 0.00 0.34 0.00 11 1019.6
20260902111016 61 0.0 0.0 0.00 0.34 0.00 11 1019.5
20260902110536 61 0.0 0.0 0.00 0.34 0.00 11 1019.5
20260902110016 61 0.0 0.0 0.00 0.34 0.00 11 1019.6
20260902105536 61 0.0 0.0 0.00 0.34 0.00 11 1019.5
20260902105016 61 0.0 0.0 0.00 0.34 0.00 11 1019.4
20260902104536 61 0.0 0.0 0.00 0.34 0.00 11 1019.3
20260902104016 61 0.0 0.0 0.00 0.35 0.00 11 1019.1
20260902103556 61 0.0 0.0 0.00 0.35 0.00 11 1019.0
20260902103016 61 0.0 0.0 0.00 0.35 0.00 11 1019.0
20260902102516 61 0.0 0.0 0.00 0.35 0.00 11 1019.0
20260902102016 61 0.0 0.0 0.00 0.35 0.00 12 1018.9
20260902101516 61 0.0 0.0 0.00 0.35 0.00 12 1019.0
20260902101036 61 0.0 0.0 0.00 0.35 0.00 12 1018.9
20260902100516 61 0.0 0.0 0.00 0.35 0.00 12 1018.9
20260902100016 61 0.0 0.0 0.00 0.35 0.00 12 1018.8
20260902095516 61 0.0 0.0 0.00 0.36 0.00 12 1018.8
20260902095016 61 0.0 0.0 0.00 0.36 0.00 12 1018.7
20260902094516 61 0.0 0.0 0.00 0.36 0.00 12 1018.7
20260902094036 61 0.0 0.0 0.00 0.36 0.00 12 1018.6
20260902093516 61 0.0 0.0 0.00 0.36 0.00 12 1018.6
20260902093016 61 0.0 0.0 0.00 0.36 0.00 12 1018.5
20260902092536 61 0.0 0.0 0.00 0.36 0.00 12 1018.5
20260902092016 61 0.0 0.0 0.00 0.36 0.00 12 1018.5
20260902091515 61 0.0 0.0 0.00 0.36 0.00 11 1018.4
20260902091015 61 0.0 0.0 0.00 0.36 0.00 11 1018.3
20260902090515 61 0.0 0.0 0.00 0.36 0.00 11 1018.4
20260902090015 61 0.0 0.0 0.00 0.36 0.00 11 1018.3
20260902085516 61 0.0 0.0 0.00 0.36 0.00 11 1018.2
20260902085016 61 0.0 0.0 0.00 0.36 0.00 11 1018.2
20260902084536 61 0.0 0.0 0.00 0.36 0.00 11 1018.1
20260902084015 61 0.0 0.0 0.00 0.36 0.00 11 1018.2
20260902083515 61 0.0 0.0 0.00 0.36 0.00 11 1018.2
20260902083036 61 0.0 0.0 0.00 0.36 0.00 11 1018.1
20260902082515 61 0.0 0.0 0.00 0.36 0.00 11 1018.1
20260902082016 62 0.0 0.0 0.00 0.36 0.00 11 1018.2
20260902081516 62 0.0 0.0 0.00 0.36 0.00 11 1018.3
20260902081015 62 0.0 0.0 0.00 0.36 0.00 11 1018.4
20260902080515 62 0.0 0.0 0.00 0.36 0.00 11 1018.4
20260902080015 62 0.0 0.0 0.00 0.36 0.00 12 1018.4
20260902075515 62 0.0 0.0 0.00 0.36 0.00 12 1018.4
20260902075016 62 0.0 0.0 0.00 0.36 0.00 12 1018.4
20260902074515 62 0.0 0.0 0.00 0.36 0.00 12 1018.4
20260902074015 62 0.0 0.0 0.00 0.36 0.00 12 1018.4
20260902073515 62 0.0 0.0 0.00 0.36 0.00 12 1018.4
20260902073015 61 0.0 0.0 0.00 0.36 0.00 12 1018.5
20260902072515 61 0.0 0.0 0.00 0.36 0.00 12 1018.6
20260902072036 61 0.0 0.0 0.00 0.36 0.00 12 1018.6
20260902071516 61 0.0 0.0 0.00 0.36 0.00 12 1018.5
20260902071015 61 0.0 0.0 0.00 0.36 0.00 12 1018.4
20260902070536 61 0.0 0.0 0.00 0.36 0.00 12 1018.3
20260902070015 61 0.0 0.0 0.00 0.36 0.00 12 1018.2
20260902065515 61 0.0 0.0 0.00 0.36 0.00 12 1018.2
20260902065015 61 0.0 0.0 0.00 0.36 0.00 12 1018.1
20260902064515 61 0.0 0.0 0.00 0.36 0.00 12 1018.1
20260902064055 61 0.0 0.0 0.00 0.36 0.00 12 1018.1
20260902063515 61 0.0 0.0 0.00 0.36 0.00 12 1018.2
20260902063015 61 0.0 0.0 0.00 0.36 0.00 12 1018.2
20260902062515 61 0.0 0.0 0.00 0.36 0.00 12 1018.2
20260902062015 61 0.0 0.0 0.00 0.36 0.00 12 1018.3
20260902061515 61 0.0 0.0 0.00 0.36 0.00 12 1018.3
20260902061015 61 0.0 0.0 0.00 0.36 0.00 12 1018.2
20260902060515 61 0.0 0.0 0.00 0.36 0.00 12 1018.3
20260902060015 61 0.0 0.0 0.00 0.36 0.00 12 1018.3
20260902055515 61 0.0 0.0 0.00 0.36 0.00 12 1018.2
20260902055015 61 0.0 0.0 0.00 0.36 0.00 12 1018.2
20260902054515 61 0.0 0.0 0.00 0.36 0.00 12 1018.3
20260902054015 61 0.0 0.0 0.00 0.36 0.00 12 1018.2
20260902053515 61 0.0 0.0 0.00 0.36 0.00 12 1018.1
20260902053015 61 0.0 0.0 0.00 0.36 0.00 12 1018.1
20260902052535 61 0.0 0.0 0.00 0.36 0.00 12 1018.2
20260902052015 61 0.0 0.0 0.00 0.36 0.00 12 1018.2
20260902051515 61 0.0 0.0 0.00 0.36 0.00 12 1018.1
20260902051015 61 0.0 0.0 0.00 0.36 0.00 12 1018.0
20260902050515 61 0.0 0.0 0.00 0.36 0.00 12 1017.9
20260902050015 61 0.0 0.0 0.00 0.36 0.00 12 1017.8
20260902045515 61 0.0 0.0 0.00 0.36 0.00 12 1017.8
20260902045015 61 0.0 0.0 0.00 0.36 0.00 12 1017.7
20260902044515 61 0.0 0.0 0.00 0.36 0.00 12 1017.5
20260902044035 61 0.0 0.0 0.00 0.36 0.00 12 1017.5
20260902043515 61 0.0 0.0 0.00 0.36 0.00 12 1017.4
20260902043015 61 0.0 0.0 0.00 0.36 0.00 12 1017.3
20260902042515 61 0.0 0.0 0.00 0.36 0.00 12 1017.3
20260902042015 61 0.0 0.0 0.00 0.36 0.00 12 1017.3
20260902041515 61 0.0 0.0 0.00 0.36 0.00 12 1017.3
20260902041015 61 0.0 0.0 0.00 0.36 0.00 12 1017.3
20260902040515 61 0.0 0.0 0.00 0.36 0.00 12 1017.2
20260902040015 61 0.0 0.0 0.00 0.36 0.36 12 1017.2
20260902035517 61 0.0 0.0 0.00 0.36 0.36 12 1017.1
20260902035017 61 0.0 0.0 0.00 0.36 0.36 12 1017.0
20260902034517 61 0.0 0.0 0.00 0.36 0.36 12 1016.8
20260902034016 61 0.0 0.0 0.00 0.36 0.36 12 1016.6
20260902033516 61 0.0 0.0 0.00 0.36 0.36 12 1016.5
20260902033017 62 0.0 0.0 0.00 0.36 0.36 12 1016.5
20260902032516 62 0.0 0.0 0.00 0.36 0.36 12 1016.5
20260902032016 62 0.0 0.0 0.00 0.36 0.36 12 1016.6
20260902031517 62 0.0 0.0 0.00 0.36 0.36 11 1016.7
20260902031016 62 0.0 0.0 0.00 0.36 0.36 11 1016.7
20260902030516 62 0.0 0.0 0.00 0.36 0.36 11 1016.8
20260902030016 62 0.0 0.0 0.00 0.36 0.36 11 1016.8
20260902025516 62 0.0 0.0 0.00 0.36 0.36 11 1016.9
20260902025016 62 0.0 0.0 0.00 0.36 0.36 11 1016.8
20260902024516 62 0.0 0.0 0.00 0.36 0.36 11 1016.7
20260902024017 62 0.0 0.0 0.00 0.36 0.36 11 1016.8
20260902023516 62 0.0 0.0 0.00 0.36 0.36 11 1016.9
20260902023036 62 0.0 0.0 0.00 0.36 0.36 11 1016.9
20260902022517 62 0.0 0.0 0.00 0.36 0.36 11 1016.9
20260902022017 62 0.0 0.0 0.00 0.36 0.36 11 1017.1
20260902021516 62 0.0 0.0 0.00 0.36 0.36 11 1017.1
20260902021016 62 0.0 0.0 0.00 0.36 0.36 11 1017.1
20260902020517 62 0.0 0.0 0.00 0.36 0.36 11 1017.1
20260902020016 62 0.0 0.0 0.00 0.36 0.36 11 1017.2
20260902015516 62 0.0 0.0 0.00 0.36 0.36 11 1017.0
20260902015016 62 0.0 0.0 0.00 0.36 0.36 11 1016.9
20260902014536 62 0.0 0.0 0.00 0.36 0.36 11 1016.9
20260902014016 62 0.0 0.0 0.00 0.36 0.36 11 1017.0
20260902013516 62 0.0 0.0 0.00 0.36 0.36 11 1016.9
20260902013016 62 0.0 0.0 0.00 0.36 0.36 11 1016.8
20260902012516 62 0.0 0.0 0.00 0.36 0.36 11 1016.9
20260902012016 62 0.0 0.0 0.00 0.36 0.36 11 1016.9
20260902011516 62 0.0 0.0 0.00 0.36 0.36 11 1016.8
20260902011016 62 0.0 0.0 0.00 0.36 0.36 11 1016.8
20260902010516 62 0.0 0.0 0.00 0.36 0.36 11 1016.9
20260902010036 62 0.0 0.0 0.00 0.36 0.36 11 1016.9
20260902005556 62 0.0 0.0 0.00 0.36 0.36 11 1016.7
20260902005036 62 0.0 0.0 0.00 0.36 0.36 11 1016.7
20260902004536 62 0.0 0.0 0.00 0.36 0.36 11 1016.7
20260902004016 62 0.0 0.0 0.00 0.36 0.36 11 1016.5
20260902003556 62 0.0 0.0 0.00 0.36 0.36 11 1016.5
20260902003016 63 0.0 0.0 0.00 0.36 0.36 11 1016.4
20260902002536 63 0.0 0.0 0.00 0.36 0.36 11 1016.5
20260902002016 63 0.0 0.0 0.00 0.36 0.36 11 1016.5
20260902001516 63 0.0 0.0 0.00 0.36 0.36 11 1016.3
20260902001016 63 0.0 0.0 0.00 0.36 0.36 11 1016.2
20260902000516 63 0.0 0.0 0.00 0.36 0.36 11 1016.1
20260902000016 63 0.0 0.0 0.00 0.36 0.36 11 1016.2
20260901235516 63 0.0 0.0 0.00 0.36 0.36 11 1016.2
20260901235016 63 0.0 0.0 0.00 0.36 0.36 11 1016.1
20260901234516 63 0.0 0.0 0.00 0.36 0.36 11 1016.1
20260901234016 63 0.0 0.0 0.00 0.36 0.36 11 1016.3
20260901233536 63 0.0 0.0 0.00 0.36 0.36 11 1016.4
20260901233016 63 0.0 0.0 0.00 0.36 0.36 11 1016.3
20260901232516 63 0.0 0.0 0.00 0.36 0.36 11 1016.4
20260901232016 63 0.0 0.0 0.00 0.36 0.36 11 1016.4
20260901231516 63 0.0 0.0 0.00 0.36 0.36 11 1016.4
20260901231016 63 0.0 0.0 0.00 0.36 0.36 11 1016.3
20260901230516 63 0.0 0.0 0.00 0.36 0.36 11 1016.2
20260901230016 63 0.0 0.0 0.00 0.36 0.36 11 1016.2
20260901225516 63 0.0 0.0 0.00 0.36 0.36 11 1016.1
20260901225016 63 0.0 0.0 0.00 0.36 0.36 11 1016.0
20260901224556 63 0.0 0.0 0.00 0.36 0.36 11 1016.0
20260901224016 63 0.0 0.0 0.01 0.36 0.36 11 1016.1
20260901223516 63 0.0 0.0 0.01 0.36 0.36 11 1016.0
20260901223016 63 0.0 0.0 0.01 0.36 0.36 11 1016.0
20260901222516 63 0.0 0.0 0.01 0.36 0.36 11 1016.0
20260901222016 63 0.0 0.0 0.01 0.36 0.36 11 1016.0
20260901221536 63 0.0 0.0 0.01 0.36 0.36 11 1016.0
20260901221037 63 0.0 1.0 0.02 0.36 0.36 11 1016.1
20260901220516 64 349 0.0 1.0 0.02 0.36 0.36 11 1016.1
20260901220016 64 0.0 0.0 0.02 0.36 0.36 12 1016.0
20260901215516 64 0.0 0.0 0.03 0.36 0.36 12 1015.9
20260901215016 64 0.0 2.0 0.03 0.36 0.36 12 1015.9
20260901214516 64 194 0.0 2.0 0.03 0.36 0.36 12 1015.9
20260901214015 64 310 0.0 2.0 0.02 0.35 0.35 11 1015.8
20260901213516 64 308 0.0 4.0 0.02 0.35 0.35 11 1015.7
20260901213016 65 257 0.0 4.0 0.02 0.35 0.35 11 1015.7
20260901212516 65 241 0.0 3.0 0.03 0.35 0.35 10 1015.7
20260901212036 65 276 0.0 3.0 0.03 0.35 0.35 10 1015.7
20260901211516 65 209 0.0 3.0 0.04 0.35 0.35 9 1015.7
20260901211016 65 223 0.0 3.0 0.03 0.34 0.34 9 1015.6
20260901210517 65 0.0 0.0 0.03 0.34 0.34 9 1015.5
20260901210037 65 0.0 0.0 0.04 0.34 0.34 9 1015.4
20260901205516 65 0.0 1.0 0.03 0.33 0.33 9 1015.3
20260901205016 65 277 0.0 1.0 0.04 0.33 0.33 9 1015.2
20260901204516 65 0.0 1.0 0.04 0.33 0.33 9 1015.2
20260901204035 65 277 0.0 1.0 0.04 0.33 0.33 9 1015.1
20260901203515 65 277 0.0 1.0 0.06 0.33 0.33 10 1015.1
20260901203015 65 0.0 0.0 0.06 0.33 0.33 9 1015.1
20260901202516 65 0.0 0.0 0.05 0.32 0.32 9 1015.2
20260901202015 65 0.0 0.0 0.06 0.32 0.32 9 1015.2
20260901201516 65 0.0 0.0 0.06 0.31 0.31 9 1015.1
20260901201036 65 0.0 0.0 0.06 0.31 0.31 10 1015.1
20260901200516 65 0.0 0.0 0.06 0.31 0.31 10 1015.1
20260901200015 65 0.0 0.0 0.06 0.30 0.30 10 1015.1
20260901195516 65 0.0 1.0 0.07 0.30 0.30 10 1015.2
20260901195035 65 277 0.0 1.0 0.06 0.29 0.29 10 1015.1
20260901194515 65 65 0.0 1.0 0.06 0.29 0.29 9 1015.1
20260901194035 65 66 0.0 1.0 0.07 0.29 0.29 9 1015.1
20260901193515 65 0.0 0.0 0.05 0.27 0.27 9 1015.0
20260901193015 65 0.0 0.0 0.06 0.27 0.27 10 1015.1
20260901192516 65 0.0 2.0 0.06 0.27 0.27 10 1015.1
20260901192016 65 226 0.0 2.0 0.06 0.26 0.26 10 1015.1
20260901191516 65 339 0.0 1.0 0.06 0.25 0.25 10 1015.2
20260901191035 65 339 0.0 1.0 0.07 0.25 0.25 10 1015.1
20260901190515 65 0.0 0.0 0.08 0.25 0.25 10 1015.1
20260901190015 65 0.0 0.0 0.07 0.24 0.24 10 1015.1
20260901185515 65 0.0 0.0 0.06 0.23 0.23 10 1015.2
20260901185015 65 0.0 0.0 0.06 0.23 0.23 10 1015.2
20260901184515 65 0.0 0.0 0.06 0.23 0.23 10 1015.2
20260901184015 65 0.0 0.0 0.05 0.22 0.22 10 1015.2
20260901183515 65 0.0 0.0 0.05 0.22 0.22 10 1015.2
20260901183015 64 0.0 0.0 0.04 0.21 0.21 10 1015.3
20260901182515 64 0.0 0.0 0.04 0.21 0.21 10 1015.3
20260901182016 64 0.0 0.0 0.03 0.20 0.20 11 1015.3
20260901181515 64 0.0 0.0 0.02 0.19 0.19 11 1015.3
20260901181015 64 0.0 0.0 0.01 0.18 0.18 11 1015.3
20260901180515 64 0.0 0.0 0.00 0.17 0.17 11 1015.2
20260901180015 64 0.0 0.0 0.01 0.17 0.17 11 1015.1
20260901175535 64 0.0 0.0 0.01 0.17 0.17 11 1015.0
20260901175015 64 0.0 0.0 0.02 0.17 0.17 11 1014.9
20260901174535 65 0.0 1.0 0.02 0.17 0.17 11 1014.8
20260901174017 65 339 0.0 1.0 0.03 0.17 0.17 11 1014.8
20260901173515 65 339 0.0 3.0 0.04 0.17 0.17 10 1014.7
20260901173015 65 339 0.0 3.0 0.04 0.17 0.17 11 1014.7
20260901172515 65 339 0.0 2.0 0.04 0.17 0.17 11 1014.7
20260901172015 65 339 0.0 1.0 0.04 0.17 0.17 11 1014.7
20260901171515 65 0.0 2.0 0.04 0.17 0.17 11 1014.7
20260901171015 65 339 0.0 2.0 0.04 0.17 0.17 11 1014.8
20260901170515 65 339 0.0 3.0 0.04 0.17 0.17 11 1014.8
20260901170015 65 339 0.0 3.0 0.03 0.16 0.16 11 1014.7
20260901165535 65 0.0 0.0 0.03 0.16 0.16 11 1014.8
20260901165035 65 0.0 0.0 0.02 0.15 0.15 11 1014.8
20260901164515 65 0.0 0.0 0.02 0.15 0.15 11 1014.9
20260901164015 65 0.0 2.0 0.01 0.14 0.14 11 1014.9
20260901163515 65 339 0.0 2.0 0.00 0.13 0.13 11 1015.0
20260901163035 65 0.0 2.0 0.00 0.13 0.13 11 1015.1
20260901162515 65 339 0.0 2.0 0.00 0.13 0.13 11 1015.1
20260901162015 65 339 0.0 2.0 0.00 0.13 0.13 11 1015.1
20260901161515 65 0.0 0.0 0.00 0.13 0.13 12 1015.2